Página principal
METAR-TAF:

METAR-TAF

Aeroportos :

Brooks Field

Marshall, Michigan, Estados Unidos

latitude: 42-15-04N, longitude: 084-57-20W, altura: 287 m

Observação actual do tempo

O boletim foi feito há 17 minutos, às 22:55 UTC
Vento 5 kt de noroeste
Temperatura 10°C
Humidade 46%
Pressão 1024 hPa
Visibilidade: 16.1 km
Nuvens dispersasa uma altura de 5000 ft
Nuvens dispersasa uma altura de 6000 ft

METAR: KRMY 232255Z AUTO 31005KT 10SM SCT050 SCT060 10/M01 A3024 RMK AO2 T00991015

Hora: 19:12 (23:12 UTC)


TAF: em falta

Observações e previsões do tempo de mais de 4000 aeroportos (mensagens METAR e TAF).

As estações disponíveis são os pontos amarelos e vermelhos sobre o mapa.

Mova o rato sobre o mapa para ver o nome da estação.

Depois clique no ponto para visualizar as observações e previsões meteorológicas.

Para alterar o mapa : clique nos botões verdes com uma cruz preta para aumentar o zoom; no botão verde com uma pitada de zoom; ou nas setas verdes para mapas adjacentes.


METAR-TAF: